{"data":{"norad_id":60137,"epoch":"2026-05-24T21:52:55.478208Z","epoch_age_seconds":76449,"freshness":"FRESH","line1":"1 60137U 24120C   26144.91175322  .00003695  00000+0  12056-3 0  9992","line2":"2 60137  53.1609 326.0593 0001968 119.0186 241.1013 15.34370864108047","mean_motion":15.34370864,"eccentricity":0.0001968,"inclination_deg":53.1609,"raan_deg":326.0593,"arg_perigee_deg":119.0186,"mean_anomaly_deg":241.1013,"bstar":0.00012056,"rev_number":10804,"period_min":93.849540146117,"perigee_km":461.44354550748,"apogee_km":464.13613431167,"semimajor_km":6840.9268399096,"source":"CELESTRAK","updated_at":"2026-05-25T13:38:19.170492Z"}}